STARLINK-32134, 60300

Orbit data source: Space-Track

STARLINK-32134, 60300 is a payload satellite owned by SpaceX/Seattle (US) in LEO that was launched on Sun, 28 Jul 2024 UTC via an FALCON 9 launch vehicle from the Air Force Eastern Test Range (AFETR). Payload-class satellites include a variety of spacecraft equipped with specific instruments for various scientific and technological missions. These include communications satellites like Starlink; space stations such as the ISS; scientific satellites like the Hubble; Earth observation satellites from companies like Planet Labs, Umbra, and HawkEye 360; GPS; miniature CubeSats for education and research; and military/defense satellites.

Loading next visibility...
Identifier
60300, 2024-132Y
Orbit
LEO
Country
Flag of USUS
Related business
Manufacturer
SpaceX/Seattle
Mission
Operational Commercial Communications
Bus & Motor
STARLINK V2M, Unknown motor
Mass
730 kg wet, ~700 kg dry
Launch date (UTC)
2024-07-28 (1 year ago)
Launch vehicle
FALCON 9
Launch site
Air Force Eastern Test Range (AFETR)
Object type
Payload
Rocket body
Debris
Shape & HBR
Box + 2 Pan, 17.7 m
Radar Cross Section
33.884 m², Large (>1 m²)

Expand to show TLE details & history
Last TLE update: 13 hours ago

TLE from 13 hours ago
0 STARLINK-32134
1 60300U 24132Y   25307.65161796 -.00003829  00000-0 -11718-3 0  9994
2 60300  53.1618 277.8455 0001420  94.1150 266.0013 15.30204058 72263
Epoch: 2025-11-03T15:38Z
TLE epoch observation values (Epoch: 2025-11-03T15:38:19.791Z)
Latitude
-0.00004°
Longitude
0.11308°
Altitude
476.171 km
Speed
7.629 km/s
True Right ascension
18h 31m 22s
True Declination
0° 00' 00"
Sunlit
Object was in daylight at epoch
Visualization orbit readout
Latitude
Unknown
Longitude
Unknown
Altitude
Unknown
Speed
Unknown
Apparent Right ascension
Unknown
Apparent Declination
Unknown
Sunlit
N/A
Visualization observer readout
Local Sidereal Time
00:04:02
Azimuth
Unknown
Elevation
Unknown
Doppler factor
Unknown
Orbital elements
Apogee altitude
476.432 km
Perigee altitude
474.486 km
Semi-major axis
6,853.596 km
Eccentricity
0.00014
Inclination
53.1618°
RAAN
277.8455°
Arg. of periapsis
94.115°
True anomaly
265.98507°
Mean anomaly
266.0013°
Eccentric anomaly
265.99318°
Mean motion
3.8253 °/min
Orbital period
94.11 mins
BSTAR
-0.00011718
Loading maneuver chart data...
Computing Atmospheric mass density...
Loading historical data...
Loading historical data...
Loading historical data...
Loading historical data...
Loading historical data...
Loading historical data...
Loading historical data...

Documentation

Showing up to 5 results
|